User: anonymous   Login
Location: Cincinnati Observatory Center
(39.1389°N, 84.4225°W)
Time: 18:03:18
(UTC-04:00)
Language:

COSMOS 2428 - Orbit

View from above orbital plane
View from above orbital plane
View from above satellite
View from above satellite

Ground track
Ground track

The orbit data is extracted from the following two-line orbital elements,

1 31792U 07029A   15210.38084512  .00000137  00000-0  10000-3 0  9995
2 31792 070.9784 056.8295 0009895 239.6056 187.9288 14.12529924416818
Epoch (UTC): 29 July 2015 09:08:25
Eccentricity: 0.0009895
inclination: 70.9784°
perigee height: 843 km
apogee height: 858 km
right ascension of ascending node: 56.8295°
argument of perigee: 239.6056°
revolutions per day: 14.12529924
mean anomaly at epoch: 187.9288°
orbit number at epoch: 41681

The dashed part of the orbit path shows where the satellite is in the earth's shadow,  

DLR